| time (UTC) | temp F | wind direction | speed MPH | gust MPH | rain 1hr in | rain 24hr in | rain mn in | humidity % | barometer mb |
| 20260906060939 | 75 | 101 | 2.0 | 5.0 | 0.00 | 0.00 | 0.00 | 80 | 1020.0 |
| 20260906060439 | 74 | 96 | 1.0 | 3.0 | 0.00 | 0.00 | 0.00 | 80 | 1019.9 |
| 20260906055940 | 74 | 111 | 0.0 | 2.0 | 0.00 | 0.00 | 0.00 | 81 | 1019.8 |
| 20260906055440 | 74 | 123 | 0.0 | 1.0 | 0.00 | 0.00 | 0.00 | 81 | 1019.8 |
| 20260906054939 | 73 | 121 | 2.0 | 5.0 | 0.00 | 0.00 | 0.00 | 80 | 1019.8 |
| 20260906054439 | 73 | 112 | 3.0 | 5.0 | 0.00 | 0.00 | 0.00 | 81 | 1019.7 |
| 20260906053939 | 73 | 104 | 2.0 | 5.0 | 0.00 | 0.00 | 0.00 | 81 | 1019.6 |
| 20260906053439 | 73 | 85 | 2.0 | 3.0 | 0.00 | 0.00 | 0.00 | 83 | 1019.6 |
| 20260906052938 | 73 | 84 | 1.0 | 3.0 | 0.00 | 0.00 | 0.00 | 83 | 1019.5 |
| 20260906052439 | 72 | 84 | 2.0 | 3.0 | 0.00 | 0.00 | 0.00 | 84 | 1019.5 |
| 20260906051440 | 71 | 86 | 2.0 | 5.0 | 0.00 | 0.00 | 0.00 | 86 | 1019.3 |
| 20260906050941 | 72 | 89 | 2.0 | 3.0 | 0.00 | 0.00 | 0.00 | 86 | 1019.2 |
| 20260906050439 | 72 | 101 | 2.0 | 3.0 | 0.00 | 0.00 | 0.00 | 86 | 1019.3 |
| 20260906045939 | 72 | 108 | 1.0 | 2.0 | 0.00 | 0.00 | 0.00 | 87 | 1019.2 |
| 20260906045439 | 72 | 111 | 1.0 | 3.0 | 0.00 | 0.00 | 0.00 | 87 | 1019.1 |
| 20260906044439 | 72 | 72 | 3.0 | 3.0 | 0.00 | 0.00 | 0.00 | 87 | 1019.0 |
| 20260906043939 | 72 | 81 | 2.0 | 3.0 | 0.00 | 0.00 | 0.00 | 88 | 1018.9 |
| 20260906043438 | 72 | 71 | 2.0 | 3.0 | 0.00 | 0.00 | 0.00 | 88 | 1019.0 |
| 20260906042939 | 72 | 79 | 2.0 | 3.0 | 0.00 | 0.00 | 0.00 | 88 | 1018.9 |
| 20260906042440 | 72 | 86 | 0.0 | 0.0 | 0.00 | 0.00 | 0.00 | 88 | 1018.9 |
| 20260906041938 | 73 | 86 | 0.0 | 0.0 | 0.00 | 0.00 | 0.00 | 87 | 1018.9 |
| 20260906041439 | 73 | 86 | 0.0 | 0.0 | 0.00 | 0.00 | 0.00 | 87 | 1018.9 |
| 20260906040940 | 73 | 86 | 0.0 | 1.0 | 0.00 | 0.00 | 0.00 | 87 | 1018.8 |
| 20260906040438 | 73 | 86 | 2.0 | 3.0 | 0.00 | 0.00 | 0.00 | 87 | 1018.7 |
| 20260906035439 | 73 | 78 | 3.0 | 6.0 | 0.00 | 0.00 | 0.00 | 87 | 1018.6 |
| 20260906034439 | 73 | 74 | 3.0 | 6.0 | 0.00 | 0.00 | 0.00 | 87 | 1018.5 |
| 20260906033938 | 73 | 98 | 2.0 | 5.0 | 0.00 | 0.00 | 0.00 | 87 | 1018.5 |
| 20260906033438 | 73 | 85 | 3.0 | 6.0 | 0.00 | 0.00 | 0.00 | 87 | 1018.4 |
| 20260906032939 | 74 | 88 | 3.0 | 6.0 | 0.00 | 0.00 | 0.00 | 87 | 1018.4 |
| 20260906031939 | 74 | 93 | 2.0 | 5.0 | 0.00 | 0.00 | 0.00 | 86 | 1018.3 |
| 20260906031438 | 74 | 84 | 2.0 | 5.0 | 0.00 | 0.00 | 0.00 | 86 | 1018.3 |
| 20260906030940 | 74 | 79 | 4.0 | 7.0 | 0.00 | 0.00 | 0.00 | 86 | 1018.3 |
| 20260906030439 | 74 | 90 | 3.0 | 6.0 | 0.00 | 0.00 | 0.00 | 86 | 1018.3 |
| 20260906025439 | 74 | 67 | 5.0 | 8.0 | 0.00 | 0.00 | 0.00 | 85 | 1018.3 |
| 20260906024439 | 75 | 62 | 6.0 | 9.0 | 0.00 | 0.00 | 0.00 | 85 | 1018.3 |
| 20260906023438 | 75 | 65 | 5.0 | 9.0 | 0.00 | 0.00 | 0.00 | 84 | 1018.3 |
| 20260906022438 | 75 | 77 | 7.0 | 9.0 | 0.00 | 0.00 | 0.00 | 84 | 1018.3 |
| 20260906021938 | 75 | 76 | 6.0 | 9.0 | 0.00 | 0.00 | 0.00 | 83 | 1018.2 |
| 20260906021438 | 76 | 81 | 7.0 | 10.0 | 0.00 | 0.00 | 0.00 | 83 | 1018.1 |
| 20260906020938 | 76 | 69 | 6.0 | 13.0 | 0.00 | 0.00 | 0.00 | 83 | 1018.1 |
| 20260906020438 | 76 | 70 | 7.0 | 14.0 | 0.00 | 0.00 | 0.00 | 83 | 1018.1 |
| 20260906014939 | 76 | 74 | 7.0 | 12.0 | 0.00 | 0.00 | 0.00 | 83 | 1018.1 |
| 20260906014438 | 76 | 71 | 7.0 | 12.0 | 0.00 | 0.00 | 0.00 | 84 | 1018.0 |
| 20260906013938 | 76 | 69 | 8.0 | 12.0 | 0.00 | 0.00 | 0.00 | 85 | 1018.0 |
| 20260906012940 | 75 | 68 | 7.0 | 10.0 | 0.00 | 0.00 | 0.00 | 87 | 1018.0 |
| 20260906012439 | 75 | 60 | 6.0 | 8.0 | 0.00 | 0.00 | 0.00 | 88 | 1017.9 |
| 20260906011938 | 75 | 61 | 4.0 | 8.0 | 0.00 | 0.00 | 0.00 | 88 | 1017.9 |
| 20260906010938 | 75 | 66 | 5.0 | 7.0 | 0.00 | 0.00 | 0.00 | 88 | 1017.9 |
| 20260906010438 | 75 | 65 | 3.0 | 5.0 | 0.00 | 0.00 | 0.00 | 88 | 1017.8 |
| 20260906005939 | 75 | 63 | 3.0 | 6.0 | 0.00 | 0.00 | 0.00 | 88 | 1017.8 |
| 20260906004938 | 75 | 57 | 4.0 | 7.0 | 0.00 | 0.00 | 0.00 | 88 | 1017.7 |
| 20260906004438 | 75 | 61 | 3.0 | 3.0 | 0.00 | 0.00 | 0.00 | 88 | 1017.7 |
| 20260906003937 | 75 | 59 | 3.0 | 5.0 | 0.00 | 0.00 | 0.00 | 88 | 1017.7 |
| 20260906003438 | 75 | 61 | 3.0 | 5.0 | 0.00 | 0.00 | 0.00 | 88 | 1017.7 |
| 20260906002938 | 75 | 73 | 3.0 | 7.0 | 0.00 | 0.00 | 0.00 | 88 | 1017.7 |
| 20260906002439 | 75 | 73 | 3.0 | 7.0 | 0.00 | 0.00 | 0.00 | 88 | 1017.7 |
| 20260906001438 | 75 | 64 | 4.0 | 7.0 | 0.00 | 0.00 | 0.00 | 88 | 1017.7 |
| 20260906000938 | 75 | 67 | 4.0 | 7.0 | 0.00 | 0.00 | 0.00 | 88 | 1017.7 |
| 20260906000440 | 75 | 64 | 4.0 | 8.0 | 0.00 | 0.00 | 0.00 | 88 | 1017.7 |
| 20260905235937 | 75 | 65 | 3.0 | 7.0 | 0.00 | 0.00 | 0.00 | 88 | 1017.7 |
| 20260905235439 | 75 | 68 | 3.0 | 5.0 | 0.00 | 0.00 | 0.00 | 88 | 1017.7 |
| 20260905234939 | 75 | 67 | 2.0 | 5.0 | 0.00 | 0.00 | 0.00 | 88 | 1017.7 |
| 20260905233938 | 75 | 65 | 5.0 | 7.0 | 0.00 | 0.00 | 0.00 | 88 | 1017.7 |
| 20260905233438 | 75 | 64 | 5.0 | 7.0 | 0.00 | 0.00 | 0.00 | 88 | 1017.7 |
| 20260905232937 | 75 | 64 | 3.0 | 7.0 | 0.00 | 0.00 | 0.00 | 88 | 1017.7 |
| 20260905232437 | 75 | 73 | 2.0 | 3.0 | 0.00 | 0.00 | 0.00 | 87 | 1017.7 |
| 20260905231938 | 75 | 78 | 2.0 | 3.0 | 0.00 | 0.00 | 0.00 | 87 | 1017.6 |
| 20260905231438 | 75 | 80 | 3.0 | 6.0 | 0.00 | 0.00 | 0.00 | 87 | 1017.6 |
| 20260905230938 | 75 | 61 | 4.0 | 8.0 | 0.00 | 0.00 | 0.00 | 87 | 1017.6 |
| 20260905230438 | 75 | 67 | 5.0 | 8.0 | 0.00 | 0.00 | 0.00 | 88 | 1017.5 |
| 20260905225937 | 75 | 66 | 5.0 | 9.0 | 0.00 | 0.00 | 0.00 | 88 | 1017.5 |
| 20260905225438 | 75 | 64 | 5.0 | 8.0 | 0.00 | 0.00 | 0.00 | 88 | 1017.4 |
| 20260905224937 | 75 | 60 | 4.0 | 7.0 | 0.00 | 0.00 | 0.00 | 88 | 1017.4 |
| 20260905224437 | 75 | 67 | 3.0 | 6.0 | 0.00 | 0.00 | 0.00 | 88 | 1017.5 |
| 20260905223937 | 75 | 65 | 3.0 | 5.0 | 0.00 | 0.00 | 0.00 | 88 | 1017.4 |
| 20260905222938 | 75 | 63 | 4.0 | 7.0 | 0.00 | 0.00 | 0.00 | 88 | 1017.3 |
| 20260905222437 | 75 | 68 | 3.0 | 8.0 | 0.00 | 0.00 | 0.00 | 87 | 1017.2 |
| 20260905221938 | 76 | 66 | 4.0 | 8.0 | 0.00 | 0.00 | 0.00 | 86 | 1017.2 |
| 20260905221437 | 76 | 64 | 5.0 | 8.0 | 0.00 | 0.00 | 0.00 | 86 | 1017.1 |
| 20260905220937 | 76 | 65 | 4.0 | 7.0 | 0.00 | 0.00 | 0.00 | 85 | 1017.1 |
| 20260905220438 | 76 | 60 | 5.0 | 7.0 | 0.00 | 0.00 | 0.00 | 84 | 1017.1 |
| 20260905215938 | 76 | 64 | 3.0 | 7.0 | 0.00 | 0.00 | 0.00 | 84 | 1017.0 |
| 20260905215437 | 76 | 60 | 5.0 | 8.0 | 0.00 | 0.00 | 0.00 | 83 | 1017.0 |
| 20260905214937 | 76 | 66 | 3.0 | 7.0 | 0.00 | 0.00 | 0.00 | 82 | 1016.9 |
| 20260905214438 | 76 | 64 | 5.0 | 7.0 | 0.00 | 0.00 | 0.00 | 81 | 1016.9 |
| 20260905213937 | 77 | 67 | 4.0 | 7.0 | 0.00 | 0.00 | 0.00 | 80 | 1016.8 |
| 20260905213438 | 77 | 70 | 3.0 | 5.0 | 0.00 | 0.00 | 0.00 | 80 | 1016.8 |
| 20260905212937 | 77 | 67 | 3.0 | 5.0 | 0.00 | 0.00 | 0.00 | 79 | 1016.7 |
| 20260905212438 | 77 | 65 | 3.0 | 7.0 | 0.00 | 0.00 | 0.00 | 78 | 1016.7 |
| 20260905211937 | 77 | 65 | 5.0 | 8.0 | 0.00 | 0.00 | 0.00 | 77 | 1016.6 |
| 20260905211439 | 78 | 74 | 6.0 | 8.0 | 0.00 | 0.00 | 0.00 | 76 | 1016.5 |
| 20260905210938 | 78 | 66 | 5.0 | 7.0 | 0.00 | 0.00 | 0.00 | 75 | 1016.5 |
| 20260905205444 | 78 | 63 | 5.0 | 8.0 | 0.00 | 0.00 | 0.00 | 74 | 1016.2 |
| 20260905203953 | 78 | 66 | 6.0 | 10.0 | 0.00 | 0.00 | 0.00 | 77 | 1016.2 |
| 20260905202944 | 78 | 93 | 3.0 | 7.0 | 0.00 | 0.00 | 0.00 | 76 | 1015.9 |
| 20260905202437 | 78 | 87 | 3.0 | 7.0 | 0.00 | 0.00 | 0.00 | 76 | 1015.9 |
| 20260905201937 | 78 | 83 | 3.0 | 5.0 | 0.00 | 0.00 | 0.00 | 75 | 1015.9 |
| 20260905200940 | 78 | 80 | 3.0 | 6.0 | 0.00 | 0.00 | 0.00 | 75 | 1015.8 |
| 20260905200437 | 78 | 83 | 2.0 | 5.0 | 0.00 | 0.00 | 0.00 | 75 | 1015.7 |
| 20260905195937 | 78 | 82 | 3.0 | 5.0 | 0.00 | 0.00 | 0.00 | 75 | 1015.7 |
| 20260905195437 | 79 | 82 | 2.0 | 3.0 | 0.00 | 0.00 | 0.00 | 74 | 1015.7 |
| 20260905194437 | 79 | 81 | 3.0 | 5.0 | 0.00 | 0.00 | 0.00 | 74 | 1015.6 |
| 20260905193937 | 79 | 82 | 3.0 | 5.0 | 0.00 | 0.00 | 0.00 | 74 | 1015.5 |
| 20260905193437 | 79 | 79 | 3.0 | 5.0 | 0.00 | 0.00 | 0.00 | 75 | 1015.5 |
| 20260905192937 | 79 | 74 | 3.0 | 3.0 | 0.00 | 0.00 | 0.00 | 76 | 1015.4 |
| 20260905192437 | 79 | 74 | 2.0 | 3.0 | 0.00 | 0.00 | 0.00 | 75 | 1015.3 |
| 20260905191937 | 79 | 74 | 1.0 | 2.0 | 0.00 | 0.00 | 0.00 | 74 | 1015.3 |
| 20260905191437 | 79 | 74 | 2.0 | 3.0 | 0.00 | 0.00 | 0.00 | 73 | 1015.2 |
| 20260905190937 | 80 | 74 | 2.0 | 3.0 | 0.00 | 0.00 | 0.00 | 72 | 1015.1 |
| 20260905185939 | 80 | 74 | 2.0 | 3.0 | 0.00 | 0.00 | 0.00 | 74 | 1015.0 |
| 20260905185436 | 80 | 74 | 1.0 | 2.0 | 0.00 | 0.00 | 0.00 | 73 | 1014.9 |
| 20260905184437 | 81 | 74 | 2.0 | 3.0 | 0.00 | 0.00 | 0.00 | 73 | 1014.9 |
| 20260905183438 | 80 | 74 | 2.0 | 3.0 | 0.00 | 0.00 | 0.00 | 74 | 1014.7 |
| 20260905182936 | 80 | 68 | 2.0 | 3.0 | 0.00 | 0.00 | 0.00 | 73 | 1014.7 |
| 20260905182437 | 81 | 34 | 1.0 | 3.0 | 0.00 | 0.00 | 0.00 | 73 | 1014.5 |
| 20260905181937 | 81 | 34 | 2.0 | 3.0 | 0.00 | 0.00 | 0.00 | 72 | 1014.5 |
| 20260905181437 | 81 | 34 | 2.0 | 3.0 | 0.00 | 0.00 | 0.00 | 71 | 1014.4 |
| 20260905180954 | 82 | 34 | 1.0 | 2.0 | 0.00 | 0.00 | 0.00 | 70 | 1014.4 |
| 20260905180437 | 82 | 34 | 1.0 | 1.0 | 0.00 | 0.00 | 0.00 | 70 | 1014.3 |
| 20260905175436 | 83 | 34 | 0.0 | 0.0 | 0.00 | 0.00 | 0.00 | 69 | 1014.2 |
| 20260905174936 | 83 | 34 | 0.0 | 1.0 | 0.00 | 0.00 | 0.00 | 68 | 1014.2 |
| 20260905174440 | 83 | 34 | 0.0 | 2.0 | 0.00 | 0.00 | 0.00 | 67 | 1014.2 |
| 20260905173940 | 84 | 34 | 1.0 | 2.0 | 0.00 | 0.00 | 0.00 | 68 | 1014.1 |
| 20260905173436 | 84 | 34 | 0.0 | 0.0 | 0.00 | 0.00 | 0.00 | 67 | 1014.0 |
| 20260905172937 | 85 | 33 | 0.0 | 0.0 | 0.00 | 0.00 | 0.00 | 67 | 1014.0 |
| 20260905171937 | 86 | 33 | 0.0 | 1.0 | 0.00 | 0.00 | 0.00 | 64 | 1013.9 |
| 20260905171438 | 87 | 33 | 0.0 | 1.0 | 0.00 | 0.00 | 0.00 | 64 | 1013.9 |
| 20260905170939 | 87 | 302 | 1.0 | 2.0 | 0.00 | 0.00 | 0.00 | 62 | 1013.9 |
| 20260905165936 | 90 | 302 | 0.0 | 2.0 | 0.00 | 0.00 | 0.00 | 54 | 1013.9 |
| 20260905164937 | 91 | 286 | 2.0 | 3.0 | 0.00 | 0.00 | 0.00 | 52 | 1013.8 |
| 20260905164452 | 91 | 283 | 4.0 | 6.0 | 0.00 | 0.00 | 0.00 | 51 | 1013.8 |
| 20260905163937 | 91 | 298 | 2.0 | 3.0 | 0.00 | 0.00 | 0.00 | 51 | 1013.8 |
| 20260905162937 | 92 | 293 | 2.0 | 5.0 | 0.00 | 0.00 | 0.00 | 50 | 1013.8 |
| 20260905162437 | 92 | 292 | 3.0 | 6.0 | 0.00 | 0.00 | 0.00 | 50 | 1013.7 |
| 20260905161936 | 92 | 310 | 3.0 | 6.0 | 0.00 | 0.00 | 0.00 | 50 | 1013.7 |
| 20260905160437 | 92 | 307 | 3.0 | 7.0 | 0.00 | 0.00 | 0.00 | 50 | 1013.6 |
| 20260905155436 | 92 | 304 | 6.0 | 9.0 | 0.00 | 0.00 | 0.00 | 49 | 1013.6 |
| 20260905154436 | 93 | 304 | 4.0 | 7.0 | 0.00 | 0.00 | 0.00 | 48 | 1013.6 |
| 20260905153436 | 93 | 278 | 5.0 | 8.0 | 0.00 | 0.00 | 0.00 | 49 | 1013.6 |
| 20260905152937 | 93 | 276 | 2.0 | 6.0 | 0.00 | 0.00 | 0.00 | 51 | 1013.6 |
| 20260905152437 | 93 | 253 | 5.0 | 7.0 | 0.00 | 0.00 | 0.00 | 50 | 1013.6 |
| 20260905151436 | 93 | 275 | 7.0 | 10.0 | 0.00 | 0.00 | 0.00 | 49 | 1013.6 |
| 20260905150937 | 93 | 257 | 4.0 | 12.0 | 0.00 | 0.00 | 0.00 | 49 | 1013.6 |
| 20260905145936 | 93 | 297 | 5.0 | 8.0 | 0.00 | 0.00 | 0.00 | 49 | 1013.7 |
| 20260905145454 | 93 | 267 | 6.0 | 10.0 | 0.00 | 0.00 | 0.00 | 50 | 1013.6 |
| 20260905144936 | 93 | 271 | 5.0 | 9.0 | 0.00 | 0.00 | 0.00 | 49 | 1013.6 |
| 20260905144439 | 93 | 292 | 5.0 | 12.0 | 0.00 | 0.00 | 0.00 | 51 | 1013.6 |
| 20260905143944 | 93 | 298 | 3.0 | 7.0 | 0.00 | 0.00 | 0.00 | 51 | 1013.7 |
| 20260905143439 | 92 | 252 | 6.0 | 9.0 | 0.00 | 0.00 | 0.00 | 51 | 1013.7 |
| 20260905142936 | 93 | 255 | 8.0 | 12.0 | 0.00 | 0.00 | 0.00 | 51 | 1013.7 |
| 20260905142436 | 93 | 284 | 6.0 | 9.0 | 0.00 | 0.00 | 0.00 | 49 | 1013.8 |
| 20260905141936 | 92 | 296 | 5.0 | 10.0 | 0.00 | 0.00 | 0.00 | 51 | 1013.9 |
| 20260905141436 | 92 | 286 | 8.0 | 12.0 | 0.00 | 0.00 | 0.00 | 50 | 1014.0 |
| 20260905140936 | 93 | 304 | 7.0 | 10.0 | 0.00 | 0.00 | 0.00 | 51 | 1013.9 |
| 20260905140448 | 92 | 241 | 3.0 | 6.0 | 0.00 | 0.00 | 0.00 | 52 | 1014.0 |
| 20260905135436 | 92 | 273 | 6.0 | 10.0 | 0.00 | 0.00 | 0.00 | 52 | 1014.1 |
| 20260905134439 | 93 | 267 | 5.0 | 8.0 | 0.00 | 0.00 | 0.00 | 51 | 1014.1 |
| 20260905133936 | 92 | 294 | 5.0 | 10.0 | 0.00 | 0.00 | 0.00 | 51 | 1014.2 |
| 20260905132937 | 92 | 295 | 6.0 | 12.0 | 0.00 | 0.00 | 0.00 | 51 | 1014.3 |
| 20260905132436 | 91 | 242 | 3.0 | 7.0 | 0.00 | 0.00 | 0.00 | 55 | 1014.4 |
| 20260905131436 | 91 | 226 | 5.0 | 7.0 | 0.00 | 0.00 | 0.00 | 54 | 1014.4 |
| 20260905130936 | 91 | 256 | 6.0 | 9.0 | 0.00 | 0.00 | 0.00 | 53 | 1014.5 |
| 20260905125438 | 91 | 239 | 3.0 | 7.0 | 0.00 | 0.00 | 0.00 | 56 | 1014.6 |
| 20260905124436 | 91 | 270 | 3.0 | 7.0 | 0.00 | 0.00 | 0.00 | 57 | 1014.9 |
| 20260905123951 | 90 | 327 | 4.0 | 9.0 | 0.00 | 0.00 | 0.00 | 57 | 1014.9 |
| 20260905122935 | 90 | 293 | 4.0 | 7.0 | 0.00 | 0.00 | 0.00 | 57 | 1015.0 |
| 20260905122436 | 90 | 265 | 5.0 | 9.0 | 0.00 | 0.00 | 0.00 | 57 | 1015.0 |
| 20260905121435 | 90 | 247 | 4.0 | 7.0 | 0.00 | 0.00 | 0.00 | 59 | 1015.1 |
| 20260905120936 | 89 | 287 | 5.0 | 10.0 | 0.00 | 0.00 | 0.00 | 59 | 1015.0 |
| 20260905115437 | 89 | 287 | 6.0 | 10.0 | 0.00 | 0.00 | 0.00 | 57 | 1015.2 |
| 20260905114935 | 89 | 290 | 7.0 | 12.0 | 0.00 | 0.00 | 0.00 | 56 | 1015.3 |
| 20260905113937 | 89 | 272 | 6.0 | 8.0 | 0.00 | 0.00 | 0.00 | 56 | 1015.3 |
| 20260905113436 | 89 | 237 | 6.0 | 12.0 | 0.00 | 0.00 | 0.00 | 56 | 1015.4 |
| 20260905112437 | 89 | 282 | 6.0 | 9.0 | 0.00 | 0.00 | 0.00 | 57 | 1015.4 |
| 20260905111939 | 88 | 287 | 5.0 | 10.0 | 0.00 | 0.00 | 0.00 | 57 | 1015.4 |
| 20260905111441 | 88 | 264 | 8.0 | 10.0 | 0.00 | 0.00 | 0.00 | 55 | 1015.3 |
| 20260905110947 | 88 | 252 | 6.0 | 12.0 | 0.00 | 0.00 | 0.00 | 57 | 1015.4 |
| 20260905110436 | 87 | 283 | 5.0 | 8.0 | 0.00 | 0.00 | 0.00 | 56 | 1015.4 |
| 20260905105935 | 88 | 257 | 7.0 | 12.0 | 0.00 | 0.00 | 0.00 | 56 | 1015.4 |
| 20260905105439 | 88 | 227 | 6.0 | 9.0 | 0.00 | 0.00 | 0.00 | 57 | 1015.4 |
| 20260905104936 | 88 | 239 | 6.0 | 13.0 | 0.00 | 0.00 | 0.00 | 58 | 1015.5 |
| 20260905104435 | 87 | 252 | 7.0 | 12.0 | 0.00 | 0.00 | 0.00 | 57 | 1015.4 |
| 20260905103937 | 87 | 265 | 6.0 | 12.0 | 0.00 | 0.00 | 0.00 | 57 | 1015.5 |
| 20260905101435 | 86 | 296 | 10.0 | 14.0 | 0.00 | 0.00 | 0.00 | 57 | 1015.7 |
| 20260905100936 | 87 | 281 | 9.0 | 12.0 | 0.00 | 0.00 | 0.00 | 58 | 1015.7 |
| 20260905095935 | 86 | 280 | 6.0 | 12.0 | 0.00 | 0.00 | 0.00 | 59 | 1015.6 |
| 20260905095435 | 86 | 284 | 6.0 | 12.0 | 0.00 | 0.00 | 0.00 | 60 | 1015.7 |
| 20260905094936 | 85 | 291 | 6.0 | 12.0 | 0.00 | 0.00 | 0.00 | 61 | 1015.8 |
| 20260905094436 | 85 | 298 | 5.0 | 10.0 | 0.00 | 0.00 | 0.00 | 60 | 1015.7 |
| 20260905093435 | 85 | 265 | 8.0 | 12.0 | 0.00 | 0.00 | 0.00 | 57 | 1015.7 |
| 20260905092935 | 85 | 301 | 6.0 | 9.0 | 0.00 | 0.00 | 0.00 | 59 | 1015.7 |
| 20260905092435 | 86 | 271 | 6.0 | 13.0 | 0.00 | 0.00 | 0.00 | 59 | 1015.7 |
| 20260905091436 | 84 | 305 | 5.0 | 12.0 | 0.00 | 0.00 | 0.00 | 61 | 1015.8 |
| 20260905090935 | 84 | 300 | 6.0 | 10.0 | 0.00 | 0.00 | 0.00 | 61 | 1015.8 |
| 20260905090435 | 83 | 298 | 7.0 | 12.0 | 0.00 | 0.00 | 0.00 | 63 | 1015.8 |
| 20260905085436 | 84 | 318 | 6.0 | 12.0 | 0.00 | 0.00 | 0.00 | 62 | 1015.9 |
| 20260905084935 | 84 | 313 | 6.0 | 12.0 | 0.00 | 0.00 | 0.00 | 63 | 1015.8 |
| 20260905083942 | 83 | 283 | 5.0 | 9.0 | 0.00 | 0.00 | 0.00 | 64 | 1015.5 |
| 20260905083437 | 83 | 288 | 6.0 | 12.0 | 0.00 | 0.00 | 0.00 | 64 | 1015.5 |
| 20260905082935 | 82 | 290 | 6.0 | 8.0 | 0.00 | 0.00 | 0.00 | 66 | 1015.5 |
| 20260905082438 | 82 | 293 | 4.0 | 10.0 | 0.00 | 0.00 | 0.00 | 65 | 1015.5 |
| 20260905081935 | 82 | 290 | 6.0 | 10.0 | 0.00 | 0.00 | 0.00 | 65 | 1015.6 |
| 20260905080935 | 82 | 308 | 8.0 | 12.0 | 0.00 | 0.00 | 0.00 | 72 | 1015.6 |
| 20260905074938 | 81 | 318 | 3.0 | 6.0 | 0.00 | 0.00 | 0.00 | 73 | 1015.5 |
| 20260905073435 | 79 | 287 | 2.0 | 3.0 | 0.00 | 0.00 | 0.00 | 74 | 1015.4 |
| 20260905072935 | 79 | 303 | 2.0 | 5.0 | 0.00 | 0.00 | 0.00 | 75 | 1015.4 |
| 20260905072435 | 78 | 304 | 3.0 | 5.0 | 0.00 | 0.00 | 0.00 | 75 | 1015.4 |
| 20260905070936 | 77 | 295 | 2.0 | 3.0 | 0.00 | 0.00 | 0.00 | 76 | 1015.4 |
| 20260905070436 | 76 | 287 | 2.0 | 3.0 | 0.00 | 0.00 | 0.00 | 78 | 1015.3 |
| 20260905065934 | 76 | 280 | 1.0 | 3.0 | 0.00 | 0.00 | 0.00 | 79 | 1015.3 |
| 20260905065435 | 75 | 300 | 2.0 | 5.0 | 0.00 | 0.00 | 0.00 | 79 | 1015.4 |
| 20260905064935 | 75 | 298 | 3.0 | 3.0 | 0.00 | 0.00 | 0.00 | 80 | 1015.4 |
| 20260905064435 | 74 | 313 | 3.0 | 3.0 | 0.00 | 0.00 | 0.00 | 80 | 1015.4 |
| 20260905063936 | 74 | 297 | 3.0 | 3.0 | 0.00 | 0.00 | 0.00 | 81 | 1015.3 |
| 20260905063436 | 74 | 298 | 1.0 | 3.0 | 0.00 | 0.00 | 0.00 | 81 | 1015.3 |
| 20260905062934 | 73 | 30 | 0.0 | 0.0 | 0.00 | 0.00 | 0.00 | 83 | 1015.2 |
| 20260905062435 | 73 | 71 | 0.0 | 0.0 | 0.00 | 0.00 | 0.00 | 83 | 1015.1 |
| 20260905061935 | 74 | 71 | 0.0 | 0.0 | 0.00 | 0.00 | 0.00 | 82 | 1015.1 |